| time (UTC) | temp C | wind direction | speed KPH | gust KPH | rain 1hr cm | rain 24hr cm | rain mn cm | humidity % | barometer mb |
| 20260507085523 | 11 | 359 | 0.0 | 0.0 | 0.00 | 0.25 | 0.25 | 92 | 1012.7 |
| 20260507085019 | 11 | 359 | 0.0 | 0.0 | 0.00 | 0.25 | 0.25 | 92 | 1012.4 |
| 20260507084516 | 11 | 1 | 0.0 | 0.0 | 0.00 | 0.25 | 0.25 | 92 | 1012.3 |
| 20260507084013 | 11 | 2 | 0.0 | 0.0 | 0.00 | 0.25 | 0.25 | 92 | 1012.4 |
| 20260507083509 | 11 | 2 | 0.0 | 0.0 | 0.00 | 0.25 | 0.25 | 92 | 1012.6 |
| 20260507083006 | 11 | 2 | 0.0 | 0.0 | 0.00 | 0.25 | 0.25 | 92 | 1012.4 |
| 20260507082502 | 11 | 351 | 0.0 | 0.0 | 0.00 | 0.25 | 0.25 | 91 | 1012.4 |
| 20260507081958 | 11 | 357 | 0.0 | 0.0 | 0.00 | 0.25 | 0.25 | 91 | 1012.0 |
| 20260507081455 | 11 | 15 | 0.0 | 0.0 | 0.00 | 0.25 | 0.25 | 91 | 1012.0 |
| 20260507080952 | 11 | 159 | 0.0 | 0.0 | 0.00 | 0.25 | 0.25 | 91 | 1012.0 |
| 20260507080448 | 11 | 341 | 1.6 | 3.2 | 0.00 | 0.25 | 0.25 | 91 | 1012.1 |
| 20260507075943 | 11 | 3 | 0.0 | 0.0 | 0.00 | 0.25 | 0.25 | 91 | 1011.9 |
| 20260507075440 | 12 | 312 | 3.2 | 3.2 | 0.00 | 0.25 | 0.25 | 92 | 1012.0 |
| 20260507074936 | 12 | 330 | 1.6 | 1.6 | 0.00 | 0.25 | 0.25 | 93 | 1011.8 |
| 20260507074433 | 12 | 124 | 0.0 | 0.0 | 0.00 | 0.25 | 0.25 | 93 | 1011.8 |
| 20260507073931 | 12 | 9 | 0.0 | 0.0 | 0.00 | 0.25 | 0.25 | 93 | 1011.9 |
| 20260507073427 | 12 | 27 | 0.0 | 0.0 | 0.00 | 0.25 | 0.25 | 93 | 1011.6 |
| 20260507072924 | 12 | 4 | 0.0 | 0.0 | 0.00 | 0.25 | 0.25 | 93 | 1012.0 |
| 20260507072422 | 12 | 7 | 0.0 | 0.0 | 0.00 | 0.25 | 0.25 | 94 | 1011.8 |
| 20260507071920 | 12 | 357 | 1.6 | 1.6 | 0.00 | 0.25 | 0.25 | 94 | 1011.6 |
| 20260507071416 | 12 | 334 | 0.0 | 0.0 | 0.00 | 0.25 | 0.25 | 94 | 1011.6 |
| 20260507070912 | 12 | 359 | 0.0 | 0.0 | 0.00 | 0.25 | 0.25 | 94 | 1011.5 |
| 20260507070410 | 12 | 358 | 1.6 | 1.6 | 0.00 | 0.25 | 0.25 | 94 | 1011.7 |
| 20260507065907 | 12 | 340 | 0.0 | 1.6 | 0.00 | 0.25 | 0.25 | 94 | 1011.5 |
| 20260507065403 | 12 | 22 | 3.2 | 4.8 | 0.00 | 0.25 | 0.25 | 94 | 1011.7 |
| 20260507064900 | 12 | 13 | 1.6 | 1.6 | 0.00 | 0.25 | 0.25 | 94 | 1011.9 |
| 20260507064359 | 12 | 1 | 0.0 | 0.0 | 0.00 | 0.25 | 0.25 | 94 | 1011.7 |
| 20260507063856 | 13 | 4 | 0.0 | 0.0 | 0.00 | 0.25 | 0.25 | 94 | 1011.7 |
| 20260507063353 | 13 | 348 | 0.0 | 0.0 | 0.00 | 0.25 | 0.25 | 94 | 1011.9 |
| 20260507062850 | 13 | 347 | 0.0 | 0.0 | 0.00 | 0.25 | 0.25 | 94 | 1011.4 |
| 20260507062347 | 13 | 181 | 1.6 | 1.6 | 0.00 | 0.25 | 0.25 | 94 | 1011.3 |
| 20260507061845 | 13 | 10 | 0.0 | 0.0 | 0.13 | 0.25 | 0.25 | 94 | 1011.5 |
| 20260507061342 | 13 | 356 | 0.0 | 0.0 | 0.13 | 0.25 | 0.25 | 94 | 1011.7 |
| 20260507060841 | 13 | 123 | 0.0 | 0.0 | 0.00 | 0.23 | 0.23 | 93 | 1011.9 |
| 20260507060337 | 13 | 339 | 1.6 | 1.6 | 0.00 | 0.23 | 0.23 | 93 | 1011.4 |
| 20260507055834 | 13 | 41 | 0.0 | 0.0 | 0.00 | 0.23 | 0.23 | 93 | 1011.4 |
| 20260507055329 | 13 | 0 | 0.0 | 0.0 | 0.00 | 0.23 | 0.23 | 93 | 1011.8 |
| 20260507054826 | 13 | 36 | 0.0 | 0.0 | 0.00 | 0.23 | 0.23 | 93 | 1011.7 |
| 20260507054322 | 13 | 327 | 0.0 | 1.6 | 0.00 | 0.23 | 0.23 | 92 | 1011.7 |
| 20260507053819 | 13 | 346 | 0.0 | 0.0 | 0.00 | 0.23 | 0.23 | 92 | 1011.7 |
| 20260507053317 | 13 | 7 | 0.0 | 0.0 | 0.36 | 0.23 | 0.23 | 91 | 1011.9 |
| 20260507052816 | 13 | 351 | 0.0 | 1.6 | 1.07 | 0.23 | 0.23 | 90 | 1011.9 |
| 20260507052312 | 14 | 28 | 1.6 | 3.2 | 0.89 | 0.18 | 0.18 | 88 | 1011.8 |
| 20260507051810 | 15 | 301 | 0.0 | 1.6 | 0.30 | 0.05 | 0.05 | 87 | 1012.0 |
| 20260507051307 | 15 | 301 | 1.6 | 3.2 | 0.13 | 0.03 | 0.03 | 85 | 1012.1 |
| 20260507050804 | 15 | 331 | 1.6 | 1.6 | 0.00 | 0.00 | 0.00 | 83 | 1011.9 |
| 20260507050300 | 15 | 331 | 1.6 | 1.6 | 0.00 | 0.00 | 0.00 | 81 | 1012.1 |
| 20260507045757 | 15 | 342 | 0.0 | 0.0 | 0.00 | 0.58 | 0.58 | 80 | 1012.1 |
| 20260507045253 | 16 | 331 | 0.0 | 1.6 | 0.00 | 0.58 | 0.58 | 79 | 1011.7 |
| 20260507044751 | 16 | 8 | 1.6 | 1.6 | 0.00 | 0.58 | 0.58 | 80 | 1011.7 |
| 20260507044247 | 16 | 2 | 1.6 | 1.6 | 0.00 | 0.58 | 0.58 | 81 | 1011.3 |
| 20260507043743 | 16 | 284 | 1.6 | 1.6 | 0.00 | 0.58 | 0.58 | 80 | 1011.7 |
| 20260507043240 | 16 | 351 | 0.0 | 0.0 | 0.00 | 0.58 | 0.58 | 79 | 1011.4 |
| 20260507042736 | 16 | 342 | 0.0 | 0.0 | 0.00 | 0.58 | 0.58 | 78 | 1011.6 |
| 20260507042231 | 16 | 310 | 1.6 | 1.6 | 0.00 | 0.58 | 0.58 | 79 | 1011.7 |
| 20260507041729 | 16 | 0 | 0.0 | 0.0 | 0.00 | 0.58 | 0.58 | 79 | 1011.4 |
| 20260507041226 | 16 | 344 | 1.6 | 1.6 | 0.00 | 0.58 | 0.58 | 80 | 1011.3 |
| 20260507040723 | 16 | 321 | 1.6 | 1.6 | 0.00 | 0.58 | 0.58 | 80 | 1011.3 |
| 20260507040219 | 16 | 171 | 0.0 | 0.0 | 0.00 | 0.58 | 0.58 | 79 | 1011.1 |
| 20260507035715 | 17 | 3 | 0.0 | 0.0 | 0.00 | 0.58 | 0.58 | 79 | 1010.9 |
| 20260507035211 | 17 | 343 | 0.0 | 0.0 | 0.00 | 0.58 | 0.58 | 78 | 1011.0 |
| 20260507034708 | 17 | 33 | 0.0 | 0.0 | 0.00 | 0.58 | 0.58 | 78 | 1010.8 |
| 20260507034205 | 17 | 306 | 0.0 | 0.0 | 0.00 | 0.58 | 0.58 | 79 | 1011.2 |
| 20260507033704 | 17 | 103 | 1.6 | 1.6 | 0.00 | 0.58 | 0.58 | 78 | 1011.4 |
| 20260507033200 | 17 | 341 | 1.6 | 1.6 | 0.00 | 0.58 | 0.58 | 77 | 1011.3 |
| 20260507032658 | 17 | 318 | 0.0 | 0.0 | 0.00 | 0.58 | 0.58 | 78 | 1011.0 |
| 20260507032153 | 17 | 36 | 0.0 | 0.0 | 0.00 | 0.58 | 0.58 | 78 | 1011.1 |
| 20260507031650 | 17 | 248 | 1.6 | 1.6 | 0.00 | 0.58 | 0.58 | 76 | 1010.9 |
| 20260507031147 | 17 | 314 | 0.0 | 1.6 | 0.00 | 0.58 | 0.58 | 76 | 1011.1 |
| 20260507030644 | 17 | 316 | 3.2 | 3.2 | 0.00 | 0.58 | 0.58 | 75 | 1011.2 |
| 20260507030142 | 17 | 5 | 0.0 | 0.0 | 0.00 | 0.58 | 0.58 | 75 | 1011.0 |
| 20260507025639 | 18 | 348 | 1.6 | 1.6 | 0.00 | 0.58 | 0.58 | 76 | 1010.8 |
| 20260507025136 | 18 | 320 | 1.6 | 1.6 | 0.00 | 0.58 | 0.58 | 76 | 1010.8 |
| 20260507024633 | 18 | 318 | 1.6 | 1.6 | 0.00 | 0.58 | 0.58 | 80 | 1010.8 |
| 20260507024131 | 18 | 342 | 1.6 | 3.2 | 0.00 | 0.58 | 0.58 | 79 | 1010.6 |
| 20260507023626 | 18 | 307 | 0.0 | 0.0 | 0.00 | 0.58 | 0.58 | 80 | 1010.5 |
| 20260507023124 | 18 | 311 | 3.2 | 3.2 | 0.00 | 0.58 | 0.58 | 81 | 1010.6 |
| 20260507022620 | 18 | 21 | 0.0 | 0.0 | 0.00 | 0.58 | 0.58 | 82 | 1010.3 |
| 20260507022116 | 18 | 36 | 0.0 | 0.0 | 0.00 | 0.58 | 0.58 | 82 | 1010.3 |
| 20260507021612 | 18 | 1 | 0.0 | 1.6 | 0.00 | 0.58 | 0.58 | 82 | 1010.2 |
| 20260507021108 | 18 | 311 | 1.6 | 1.6 | 0.00 | 0.58 | 0.58 | 82 | 1010.2 |
| 20260507020607 | 18 | 304 | 1.6 | 1.6 | 0.00 | 0.58 | 0.58 | 83 | 1010.2 |
| 20260507015601 | 18 | 45 | 0.0 | 0.0 | 0.00 | 0.58 | 0.58 | 86 | 1010.5 |
| 20260507015058 | 18 | 45 | 0.0 | 0.0 | 0.00 | 0.58 | 0.58 | 85 | 1010.0 |
| 20260507014555 | 18 | 45 | 0.0 | 0.0 | 0.00 | 0.58 | 0.58 | 85 | 1010.3 |
| 20260507014050 | 18 | 45 | 0.0 | 0.0 | 0.00 | 0.58 | 0.58 | 85 | 1010.6 |
| 20260507013547 | 18 | 45 | 0.0 | 0.0 | 0.00 | 0.58 | 0.58 | 85 | 1010.4 |
| 20260507013044 | 18 | 55 | 0.0 | 0.0 | 0.00 | 0.58 | 0.58 | 85 | 1010.3 |
| 20260507012542 | 18 | 55 | 0.0 | 0.0 | 0.00 | 0.58 | 0.58 | 84 | 1010.6 |
| 20260507012038 | 18 | 52 | 0.0 | 0.0 | 0.00 | 0.58 | 0.58 | 84 | 1010.6 |
| 20260507011536 | 18 | 52 | 0.0 | 0.0 | 0.00 | 0.58 | 0.58 | 84 | 1010.6 |
| 20260507011031 | 18 | 47 | 0.0 | 0.0 | 0.00 | 0.58 | 0.58 | 84 | 1010.5 |
| 20260507010526 | 18 | 47 | 0.0 | 0.0 | 0.00 | 0.58 | 0.58 | 84 | 1010.2 |
| 20260507010023 | 18 | 47 | 0.0 | 0.0 | 0.00 | 0.58 | 0.58 | 84 | 1010.4 |
| 20260507005520 | 18 | 26 | 0.0 | 0.0 | 0.00 | 0.58 | 0.58 | 84 | 1010.4 |
| 20260507005016 | 18 | 30 | 0.0 | 0.0 | 0.00 | 0.58 | 0.58 | 84 | 1010.2 |
| 20260507004513 | 18 | 30 | 0.0 | 0.0 | 0.00 | 0.58 | 0.58 | 83 | 1010.1 |
| 20260507004011 | 18 | 26 | 0.0 | 0.0 | 0.00 | 0.58 | 0.58 | 83 | 1010.2 |
| 20260507003506 | 19 | 27 | 0.0 | 0.0 | 0.00 | 0.58 | 0.58 | 83 | 1009.8 |
| 20260507003001 | 19 | 27 | 0.0 | 0.0 | 0.00 | 0.58 | 0.58 | 83 | 1010.0 |
| 20260507002458 | 19 | 44 | 0.0 | 0.0 | 0.00 | 0.58 | 0.58 | 83 | 1009.9 |
| 20260507001955 | 19 | 73 | 0.0 | 0.0 | 0.00 | 0.58 | 0.58 | 82 | 1009.9 |
| 20260507001451 | 19 | 120 | 0.0 | 0.0 | 0.00 | 0.58 | 0.58 | 82 | 1009.8 |
| 20260507000949 | 19 | 137 | 0.0 | 0.0 | 0.00 | 0.58 | 0.58 | 82 | 1010.0 |
| 20260507000445 | 19 | 203 | 1.6 | 1.6 | 0.00 | 0.58 | 0.58 | 82 | 1010.0 |
| 20260506235940 | 19 | 80 | 0.0 | 0.0 | 0.00 | 0.58 | 0.58 | 82 | 1010.0 |
| 20260506235438 | 19 | 108 | 0.0 | 0.0 | 0.00 | 0.58 | 0.58 | 81 | 1009.6 |
| 20260506234934 | 19 | 122 | 0.0 | 0.0 | 0.00 | 0.58 | 0.58 | 81 | 1009.7 |
| 20260506234432 | 20 | 62 | 0.0 | 0.0 | 0.00 | 0.58 | 0.58 | 81 | 1009.5 |
| 20260506233929 | 20 | 34 | 0.0 | 0.0 | 0.00 | 0.58 | 0.58 | 81 | 1009.7 |
| 20260506233425 | 20 | 203 | 0.0 | 0.0 | 0.00 | 0.58 | 0.58 | 80 | 1009.5 |
| 20260506232922 | 20 | 20 | 0.0 | 0.0 | 0.00 | 0.58 | 0.58 | 80 | 1009.5 |
| 20260506232418 | 20 | 116 | 0.0 | 0.0 | 0.00 | 0.58 | 0.58 | 80 | 1009.4 |
| 20260506231914 | 20 | 285 | 0.0 | 0.0 | 0.00 | 0.58 | 0.58 | 79 | 1009.2 |
| 20260506231412 | 20 | 139 | 0.0 | 0.0 | 0.00 | 0.58 | 0.58 | 80 | 1009.4 |
| 20260506230909 | 20 | 22 | 0.0 | 0.0 | 0.00 | 0.58 | 0.58 | 79 | 1009.5 |
| 20260506230405 | 20 | 104 | 0.0 | 1.6 | 0.00 | 0.58 | 0.58 | 79 | 1009.2 |
| 20260506225902 | 20 | 22 | 0.0 | 0.0 | 0.00 | 0.58 | 0.58 | 79 | 1009.4 |
| 20260506225359 | 20 | 238 | 0.0 | 0.0 | 0.00 | 0.58 | 0.58 | 79 | 1009.4 |
| 20260506224856 | 20 | 236 | 1.6 | 1.6 | 0.00 | 0.58 | 0.58 | 78 | 1009.2 |
| 20260506224354 | 20 | 56 | 0.0 | 0.0 | 0.00 | 0.58 | 0.58 | 78 | 1009.3 |
| 20260506223850 | 20 | 62 | 0.0 | 1.6 | 0.00 | 0.58 | 0.58 | 77 | 1009.3 |
| 20260506223345 | 20 | 129 | 0.0 | 0.0 | 0.00 | 0.58 | 0.58 | 78 | 1009.2 |
| 20260506222842 | 20 | 41 | 0.0 | 1.6 | 0.00 | 0.58 | 0.58 | 78 | 1009.1 |
| 20260506222337 | 21 | 12 | 0.0 | 0.0 | 0.00 | 0.58 | 0.58 | 77 | 1009.3 |
| 20260506221835 | 21 | 36 | 1.6 | 1.6 | 0.00 | 0.58 | 0.58 | 76 | 1009.3 |
| 20260506221332 | 21 | 265 | 1.6 | 1.6 | 0.00 | 0.58 | 0.58 | 76 | 1009.3 |
| 20260506220830 | 21 | 188 | 1.6 | 1.6 | 0.00 | 0.58 | 0.58 | 75 | 1009.3 |
| 20260506220325 | 21 | 308 | 0.0 | 0.0 | 0.00 | 0.58 | 0.58 | 76 | 1009.2 |
| 20260506215822 | 21 | 248 | 1.6 | 1.6 | 0.00 | 0.58 | 0.58 | 75 | 1009.5 |
| 20260506215319 | 21 | 175 | 1.6 | 1.6 | 0.00 | 0.58 | 0.58 | 76 | 1009.3 |
| 20260506214815 | 21 | 205 | 1.6 | 3.2 | 0.00 | 0.58 | 0.58 | 75 | 1009.4 |
| 20260506214311 | 21 | 113 | 0.0 | 1.6 | 0.00 | 0.58 | 0.58 | 75 | 1009.0 |
| 20260506213810 | 21 | 252 | 0.0 | 1.6 | 0.00 | 0.58 | 0.58 | 75 | 1009.2 |
| 20260506213306 | 21 | 27 | 0.0 | 0.0 | 0.00 | 0.58 | 0.58 | 74 | 1009.2 |
| 20260506212804 | 21 | 191 | 1.6 | 3.2 | 0.00 | 0.58 | 0.58 | 74 | 1008.9 |
| 20260506212300 | 21 | 164 | 0.0 | 0.0 | 0.00 | 0.58 | 0.58 | 74 | 1009.0 |
| 20260506211755 | 21 | 142 | 0.0 | 0.0 | 0.00 | 0.58 | 0.58 | 74 | 1009.0 |
| 20260506211251 | 21 | 160 | 0.0 | 0.0 | 0.00 | 0.58 | 0.58 | 74 | 1009.0 |
| 20260506210749 | 21 | 175 | 0.0 | 1.6 | 0.00 | 0.58 | 0.58 | 73 | 1008.9 |
| 20260506210245 | 21 | 326 | 0.0 | 1.6 | 0.00 | 0.58 | 0.58 | 74 | 1009.1 |
| 20260506205742 | 21 | 198 | 1.6 | 1.6 | 0.00 | 0.58 | 0.58 | 74 | 1008.9 |
| 20260506205238 | 21 | 211 | 1.6 | 3.2 | 0.00 | 0.58 | 0.58 | 73 | 1008.9 |
| 20260506204735 | 21 | 168 | 4.8 | 4.8 | 0.00 | 0.58 | 0.58 | 74 | 1008.8 |
| 20260506204233 | 21 | 353 | 0.0 | 1.6 | 0.00 | 0.58 | 0.58 | 75 | 1008.8 |
| 20260506203730 | 21 | 195 | 3.2 | 3.2 | 0.00 | 0.58 | 0.58 | 74 | 1008.9 |
| 20260506203226 | 21 | 24 | 1.6 | 3.2 | 0.00 | 0.58 | 0.58 | 74 | 1008.9 |
| 20260506202724 | 21 | 234 | 1.6 | 3.2 | 0.00 | 0.58 | 0.58 | 74 | 1009.0 |
| 20260506202220 | 21 | 26 | 0.0 | 1.6 | 0.00 | 0.58 | 0.58 | 73 | 1008.8 |
| 20260506201712 | 22 | 340 | 0.0 | 0.0 | 0.00 | 0.58 | 0.58 | 72 | 1008.7 |
| 20260506201208 | 21 | 237 | 0.0 | 1.6 | 0.00 | 0.58 | 0.58 | 73 | 1008.8 |
| 20260506200700 | 21 | 112 | 1.6 | 3.2 | 0.00 | 0.58 | 0.58 | 73 | 1009.0 |
| 20260506200156 | 21 | 174 | 3.2 | 6.4 | 0.00 | 0.58 | 0.58 | 73 | 1008.8 |
| 20260506195653 | 21 | 301 | 1.6 | 1.6 | 0.00 | 0.58 | 0.58 | 73 | 1008.8 |
| 20260506195149 | 21 | 98 | 3.2 | 3.2 | 0.00 | 0.58 | 0.58 | 71 | 1009.0 |
| 20260506194647 | 21 | 59 | 0.0 | 0.0 | 0.00 | 0.58 | 0.58 | 73 | 1008.9 |
| 20260506194143 | 21 | 240 | 1.6 | 1.6 | 0.00 | 0.58 | 0.58 | 74 | 1008.9 |
| 20260506193641 | 21 | 207 | 0.0 | 0.0 | 0.00 | 0.58 | 0.58 | 74 | 1008.9 |
| 20260506193138 | 21 | 101 | 3.2 | 3.2 | 0.00 | 0.58 | 0.58 | 74 | 1008.8 |
| 20260506192635 | 21 | 183 | 1.6 | 3.2 | 0.00 | 0.58 | 0.58 | 73 | 1009.0 |
| 20260506192131 | 21 | 234 | 1.6 | 1.6 | 0.00 | 0.58 | 0.58 | 73 | 1008.9 |
| 20260506191628 | 21 | 95 | 0.0 | 0.0 | 0.00 | 0.58 | 0.58 | 75 | 1009.3 |
| 20260506191124 | 21 | 193 | 0.0 | 1.6 | 0.00 | 0.58 | 0.58 | 76 | 1009.0 |
| 20260506190621 | 21 | 266 | 3.2 | 4.8 | 0.00 | 0.58 | 0.58 | 75 | 1009.2 |
| 20260506190117 | 21 | 315 | 1.6 | 1.6 | 0.00 | 0.58 | 0.58 | 76 | 1009.3 |
| 20260506185614 | 20 | 117 | 1.6 | 1.6 | 0.00 | 0.58 | 0.58 | 77 | 1009.2 |
| 20260506185110 | 20 | 323 | 3.2 | 3.2 | 0.00 | 0.58 | 0.58 | 77 | 1009.5 |
| 20260506184608 | 20 | 81 | 4.8 | 6.4 | 0.00 | 0.58 | 0.58 | 77 | 1009.5 |
| 20260506184105 | 20 | 309 | 3.2 | 4.8 | 0.00 | 0.58 | 0.58 | 76 | 1009.6 |
| 20260506183601 | 20 | 293 | 1.6 | 1.6 | 0.00 | 0.58 | 0.58 | 78 | 1009.5 |
| 20260506183057 | 20 | 289 | 1.6 | 3.2 | 0.00 | 0.58 | 0.58 | 77 | 1009.3 |
| 20260506182556 | 20 | 238 | 3.2 | 3.2 | 0.00 | 0.58 | 0.58 | 78 | 1009.6 |
| 20260506182052 | 20 | 246 | 1.6 | 3.2 | 0.00 | 0.58 | 0.58 | 79 | 1009.5 |
| 20260506181550 | 20 | 220 | 1.6 | 1.6 | 0.00 | 0.58 | 0.58 | 79 | 1009.7 |
| 20260506181046 | 20 | 202 | 3.2 | 4.8 | 0.00 | 0.58 | 0.58 | 81 | 1009.6 |
| 20260506180543 | 19 | 300 | 3.2 | 3.2 | 0.00 | 0.58 | 0.58 | 81 | 1009.8 |
| 20260506180040 | 19 | 241 | 4.8 | 4.8 | 0.00 | 0.58 | 0.58 | 80 | 1009.9 |
| 20260506175536 | 19 | 238 | 3.2 | 3.2 | 0.00 | 0.58 | 0.58 | 82 | 1009.9 |
| 20260506175033 | 19 | 261 | 0.0 | 0.0 | 0.00 | 0.58 | 0.58 | 83 | 1009.8 |
| 20260506174532 | 19 | 302 | 4.8 | 6.4 | 0.00 | 0.58 | 0.58 | 82 | 1009.7 |
| 20260506174027 | 18 | 251 | 3.2 | 3.2 | 0.00 | 0.58 | 0.58 | 82 | 1009.8 |
| 20260506173525 | 18 | 269 | 3.2 | 3.2 | 0.00 | 0.58 | 0.58 | 83 | 1009.7 |
| 20260506173022 | 18 | 326 | 3.2 | 3.2 | 0.00 | 0.58 | 0.58 | 84 | 1010.0 |
| 20260506172519 | 18 | 11 | 0.0 | 0.0 | 0.00 | 0.58 | 0.58 | 85 | 1010.0 |
| 20260506172015 | 18 | 225 | 1.6 | 1.6 | 0.00 | 0.58 | 0.58 | 87 | 1010.1 |
| 20260506171513 | 18 | 315 | 0.0 | 1.6 | 0.00 | 0.58 | 0.58 | 87 | 1009.9 |
| 20260506171010 | 18 | 351 | 1.6 | 1.6 | 0.00 | 0.58 | 0.58 | 87 | 1009.9 |
| 20260506170507 | 18 | 192 | 0.0 | 1.6 | 0.00 | 0.58 | 0.58 | 88 | 1010.0 |
| 20260506170000 | 18 | 255 | 1.6 | 1.6 | 0.00 | 0.58 | 0.58 | 89 | 1010.0 |
| 20260506165458 | 17 | 289 | 1.6 | 3.2 | 0.00 | 0.58 | 0.58 | 90 | 1010.0 |
| 20260506164954 | 17 | 315 | 1.6 | 1.6 | 0.00 | 0.58 | 0.58 | 90 | 1010.2 |
| 20260506164450 | 17 | 259 | 3.2 | 4.8 | 0.00 | 0.58 | 0.58 | 91 | 1010.0 |
| 20260506163943 | 17 | 146 | 3.2 | 3.2 | 0.00 | 0.58 | 0.58 | 91 | 1010.2 |
| 20260506163438 | 17 | 184 | 3.2 | 3.2 | 0.00 | 0.58 | 0.58 | 92 | 1010.2 |
| 20260506162932 | 17 | 319 | 0.0 | 0.0 | 0.00 | 0.58 | 0.58 | 92 | 1010.2 |
| 20260506162430 | 17 | 340 | 1.6 | 1.6 | 0.00 | 0.58 | 0.58 | 92 | 1010.0 |
| 20260506161922 | 17 | 206 | 1.6 | 3.2 | 0.00 | 0.58 | 0.58 | 92 | 1010.2 |
| 20260506161420 | 17 | 18 | 0.0 | 0.0 | 0.00 | 0.58 | 0.58 | 92 | 1010.2 |
| 20260506160917 | 17 | 206 | 0.0 | 1.6 | 0.00 | 0.58 | 0.58 | 92 | 1010.2 |
| 20260506160414 | 17 | 22 | 3.2 | 6.4 | 0.00 | 0.58 | 0.58 | 92 | 1010.3 |
| 20260506155912 | 16 | 322 | 1.6 | 3.2 | 0.00 | 0.58 | 0.58 | 93 | 1010.3 |
| 20260506155408 | 16 | 94 | 1.6 | 1.6 | 0.00 | 0.58 | 0.58 | 93 | 1010.6 |
| 20260506153525 | 16 | 297 | 3.2 | 4.8 | 0.30 | 0.58 | 0.58 | 93 | 1010.2 |
| 20260506153022 | 16 | 181 | 0.0 | 0.0 | 0.13 | 0.56 | 0.56 | 93 | 1010.2 |
| 20260506152519 | 16 | 182 | 1.6 | 3.2 | 0.00 | 0.53 | 0.53 | 93 | 1010.5 |
| 20260506152017 | 16 | 116 | 0.0 | 1.6 | 0.00 | 0.53 | 0.53 | 93 | 1010.8 |
| 20260506151515 | 16 | 261 | 0.0 | 0.0 | 0.00 | 0.53 | 0.53 | 93 | 1010.8 |
| 20260506151012 | 16 | 201 | 1.6 | 1.6 | 0.00 | 0.53 | 0.53 | 93 | 1010.9 |
| 20260506150508 | 16 | 175 | 4.8 | 4.8 | 0.00 | 0.53 | 0.53 | 93 | 1011.1 |
| 20260506150005 | 16 | 121 | 1.6 | 3.2 | 0.18 | 0.53 | 0.53 | 93 | 1011.3 |
| 20260506145501 | 16 | 124 | 0.0 | 0.0 | 0.36 | 0.53 | 0.53 | 93 | 1011.3 |
| 20260506144959 | 16 | 162 | 0.0 | 1.6 | 0.30 | 0.51 | 0.51 | 93 | 1011.1 |
| 20260506144455 | 16 | 164 | 0.0 | 0.0 | 0.61 | 0.48 | 0.48 | 92 | 1011.3 |
| 20260506143953 | 16 | 163 | 1.6 | 1.6 | 0.61 | 0.46 | 0.46 | 92 | 1011.3 |
| 20260506143450 | 16 | 212 | 6.4 | 11.3 | 0.48 | 0.41 | 0.41 | 92 | 1011.2 |
| 20260506142949 | 16 | 82 | 0.0 | 0.0 | 0.30 | 0.36 | 0.36 | 92 | 1011.1 |
| 20260506142446 | 16 | 339 | 1.6 | 1.6 | 0.30 | 0.33 | 0.33 | 92 | 1011.2 |
| 20260506141944 | 16 | 147 | 0.0 | 1.6 | 0.18 | 0.30 | 0.30 | 91 | 1011.1 |
| 20260506141442 | 16 | 220 | 0.0 | 0.0 | 0.48 | 0.30 | 0.30 | 91 | 1011.2 |
| 20260506140940 | 16 | 32 | 1.6 | 1.6 | 0.43 | 0.28 | 0.28 | 91 | 1011.2 |
| 20260506140436 | 16 | 208 | 0.0 | 1.6 | 0.48 | 0.25 | 0.25 | 90 | 1011.4 |
| 20260506135933 | 16 | 173 | 0.0 | 0.0 | 0.36 | 0.20 | 0.20 | 90 | 1011.3 |
| 20260506135431 | 16 | 150 | 0.0 | 0.0 | 0.30 | 0.18 | 0.18 | 89 | 1011.3 |
| 20260506134927 | 16 | 55 | 0.0 | 0.0 | 0.30 | 0.15 | 0.15 | 89 | 1011.6 |
| 20260506134423 | 16 | 170 | 0.0 | 0.0 | 0.48 | 0.13 | 0.13 | 88 | 1011.7 |
| 20260506133920 | 16 | 59 | 0.0 | 0.0 | 0.30 | 0.10 | 0.10 | 88 | 1011.8 |
| 20260506133417 | 16 | 154 | 1.6 | 1.6 | 0.00 | 0.05 | 0.05 | 87 | 1012.1 |
| 20260506132913 | 17 | 128 | 0.0 | 0.0 | 0.13 | 0.05 | 0.05 | 86 | 1011.7 |
| 20260506132411 | 17 | 281 | 0.0 | 1.6 | 0.13 | 0.05 | 0.05 | 86 | 1011.4 |
| 20260506131909 | 17 | 292 | 0.0 | 0.0 | 0.18 | 0.03 | 0.03 | 85 | 1011.5 |
| 20260506131404 | 17 | 350 | 1.6 | 1.6 | 0.18 | 0.03 | 0.03 | 82 | 1011.3 |
| 20260506130902 | 17 | 225 | 0.0 | 0.0 | 0.00 | 0.00 | 0.00 | 81 | 1011.4 |
| 20260506130358 | 17 | 168 | 1.6 | 1.6 | 0.00 | 0.00 | 0.00 | 81 | 1011.1 |
| 20260506125856 | 17 | 164 | 1.6 | 3.2 | 0.00 | 0.00 | 0.00 | 80 | 1010.9 |
| 20260506125354 | 17 | 187 | 1.6 | 1.6 | 0.00 | 0.00 | 0.00 | 80 | 1010.9 |
| 20260506124852 | 17 | 90 | 3.2 | 3.2 | 0.00 | 0.00 | 0.00 | 79 | 1010.9 |
| 20260506124349 | 17 | 193 | 0.0 | 1.6 | 0.00 | 0.00 | 0.00 | 79 | 1010.9 |
| 20260506123847 | 18 | 208 | 0.0 | 1.6 | 0.00 | 0.00 | 0.00 | 78 | 1011.1 |
| 20260506123345 | 18 | 147 | 0.0 | 1.6 | 0.00 | 0.00 | 0.00 | 76 | 1011.2 |
| 20260506122842 | 18 | 171 | 1.6 | 1.6 | 0.00 | 0.00 | 0.00 | 77 | 1011.4 |
| 20260506122338 | 18 | 149 | 1.6 | 1.6 | 0.00 | 0.00 | 0.00 | 76 | 1011.3 |
| 20260506121837 | 18 | 109 | 0.0 | 1.6 | 0.00 | 0.00 | 0.00 | 76 | 1011.6 |
| 20260506121333 | 18 | 80 | 0.0 | 0.0 | 0.00 | 0.00 | 0.00 | 77 | 1011.4 |
| 20260506120831 | 18 | 30 | 1.6 | 1.6 | 0.00 | 0.00 | 0.00 | 75 | 1011.3 |
| 20260506120328 | 18 | 207 | 1.6 | 3.2 | 0.00 | 0.00 | 0.00 | 75 | 1011.5 |
| 20260506115826 | 18 | 302 | 0.0 | 0.0 | 0.00 | 0.00 | 0.00 | 74 | 1011.4 |
| 20260506115324 | 18 | 79 | 1.6 | 1.6 | 0.00 | 0.00 | 0.00 | 72 | 1011.5 |
| 20260506114821 | 18 | 222 | 0.0 | 1.6 | 0.00 | 0.00 | 0.00 | 72 | 1011.3 |
| 20260506114319 | 18 | 237 | 1.6 | 3.2 | 0.00 | 0.00 | 0.00 | 73 | 1011.4 |
| 20260506113817 | 18 | 176 | 0.0 | 0.0 | 0.00 | 0.00 | 0.00 | 72 | 1011.1 |
| 20260506113315 | 18 | 165 | 4.8 | 4.8 | 0.00 | 0.00 | 0.00 | 72 | 1011.1 |
| 20260506112811 | 18 | 183 | 1.6 | 3.2 | 0.00 | 0.00 | 0.00 | 72 | 1011.0 |
| 20260506112308 | 18 | 187 | 1.6 | 3.2 | 0.00 | 0.00 | 0.00 | 72 | 1011.0 |
| 20260506111806 | 18 | 343 | 3.2 | 3.2 | 0.00 | 0.00 | 0.00 | 72 | 1010.9 |
| 20260506111304 | 18 | 107 | 0.0 | 0.0 | 0.00 | 0.00 | 0.00 | 73 | 1010.9 |
| 20260506110801 | 18 | 221 | 0.0 | 1.6 | 0.00 | 0.00 | 0.00 | 73 | 1010.6 |
| 20260506110258 | 18 | 252 | 1.6 | 1.6 | 0.00 | 0.00 | 0.00 | 73 | 1010.6 |
| 20260506105754 | 18 | 226 | 1.6 | 3.2 | 0.00 | 0.00 | 0.00 | 73 | 1010.6 |
| 20260506105251 | 18 | 137 | 1.6 | 1.6 | 0.00 | 0.00 | 0.00 | 73 | 1010.6 |
| 20260506104749 | 18 | 186 | 0.0 | 1.6 | 0.00 | 0.00 | 0.00 | 73 | 1010.7 |
| 20260506104247 | 18 | 240 | 1.6 | 1.6 | 0.00 | 0.00 | 0.00 | 72 | 1010.6 |
| 20260506103744 | 18 | 37 | 0.0 | 1.6 | 0.00 | 0.00 | 0.00 | 73 | 1010.6 |
| 20260506103241 | 18 | 98 | 1.6 | 1.6 | 0.00 | 0.00 | 0.00 | 73 | 1010.4 |
| 20260506102738 | 18 | 176 | 3.2 | 4.8 | 0.00 | 0.00 | 0.00 | 72 | 1010.6 |
| 20260506102236 | 18 | 124 | 0.0 | 1.6 | 0.00 | 0.00 | 0.00 | 73 | 1010.4 |
| 20260506101733 | 18 | 2 | 0.0 | 0.0 | 0.00 | 0.00 | 0.00 | 72 | 1010.8 |
| 20260506101229 | 18 | 237 | 0.0 | 1.6 | 0.00 | 0.00 | 0.00 | 72 | 1010.4 |
| 20260506100728 | 18 | 147 | 3.2 | 4.8 | 0.00 | 0.00 | 0.00 | 72 | 1010.3 |
| 20260506100226 | 18 | 170 | 3.2 | 4.8 | 0.00 | 0.00 | 0.00 | 72 | 1010.3 |
| 20260506095724 | 18 | 159 | 3.2 | 4.8 | 0.00 | 0.00 | 0.00 | 72 | 1010.5 |
| 20260506095220 | 18 | 5 | 3.2 | 9.7 | 0.00 | 0.00 | 0.00 | 72 | 1010.6 |
| 20260506094717 | 18 | 172 | 1.6 | 3.2 | 0.00 | 0.00 | 0.00 | 72 | 1010.4 |
| 20260506094215 | 18 | 313 | 0.0 | 1.6 | 0.00 | 0.00 | 0.00 | 72 | 1010.5 |
| 20260506093714 | 18 | 279 | 1.6 | 1.6 | 0.00 | 0.00 | 0.00 | 72 | 1010.6 |
| 20260506093210 | 18 | 238 | 0.0 | 1.6 | 0.00 | 0.00 | 0.00 | 72 | 1010.6 |
| 20260506092708 | 18 | 237 | 1.6 | 3.2 | 0.00 | 0.00 | 0.00 | 72 | 1010.7 |
| 20260506092205 | 18 | 61 | 1.6 | 1.6 | 0.00 | 0.00 | 0.00 | 71 | 1010.5 |
| 20260506091703 | 18 | 312 | 0.0 | 0.0 | 0.00 | 0.00 | 0.00 | 71 | 1010.5 |
| 20260506091200 | 18 | 191 | 3.2 | 4.8 | 0.00 | 0.00 | 0.00 | 71 | 1010.6 |
| 20260506090658 | 18 | 79 | 1.6 | 1.6 | 0.00 | 0.00 | 0.00 | 70 | 1010.6 |
| 20260506090154 | 18 | 105 | 3.2 | 3.2 | 0.00 | 0.00 | 0.00 | 70 | 1010.7 |